User: anonymous   Login
Location: Unspecified
(0.0000°N, 0.0000°E)
Time: 20:05:22
(UTC+00:00)
Language:

STARLINK-30802 - Orbit

View from above orbital plane
View from above orbital plane
View from above satellite
View from above satellite

Ground track
Ground track

The orbit is defined by the following mean orbital elements,

1 58150U          26145.59401559 +.00000000 +00000-0 +22443-4 0 00007
2 58150  53.1610 222.3897 0000878  99.1382 260.9719 15.31698941    06
Epoch (UTC): 25 May 2026 14:15:22
Eccentricity: 0.0000878
inclination: 53.1610°
perigee height: 470 km
apogee height: 471 km
right ascension of ascending node: 222.3897°
argument of perigee: 99.1382°
revolutions per day: 15.31698941
mean anomaly at epoch: 260.9719°

The dashed part of the orbit path shows where the satellite is in the earth's shadow,  

DLR